Location: Bakov nad Jizerou
(50.4784°N, 14.9394°E)
Time: 09:31:29
(UTC+00:00)

Cosmos 2237 Rocket - Pass Details

Date: 16 June 2021
Orbit: 834 x 850 km, 71.0° (Epoch: 04 August)

Event Time Altitude Azimuth Distance (km) Brightness Sun altitude
Exits shadow 21:41:38 19° 144° (SE) 1,881 3.4 -14.1°
Maximum altitude 21:44:15 27° 104° (ESE) 1,547 3.3 -14.2°
Drops below altitude 10° 21:48:54 10° 48° (NE) 2,455 4.9 -14.4°
Sets 21:51:40 0° 37° (NE) 3,395 5.9 -14.6°
